GW2294 Weather Reports


time (UTC)temp
C
wind
direction
speed
KPH
gust
KPH
rain 1hr
cm
rain 24hr
cm
rain mn
cm
humidity
%
barometer
mb
20260507164305 15 12 0.0 8.0 0.00 0.15 0.15 66 1013.6
20260507163759 15 36 0.0 6.4 0.00 0.15 0.15 66 1013.6
20260507163253 15 26 1.6 6.4 0.00 0.15 0.15 66 1013.7
20260507162747 15 28 0.0 6.4 0.00 0.15 0.15 66 1013.6
20260507162242 15 38 0.0 3.2 0.00 0.15 0.15 66 1013.7
20260507161735 16 37 0.0 8.0 0.00 0.15 0.15 66 1013.6
20260507161229 16 27 0.0 8.0 0.00 0.15 0.15 65 1013.6
20260507160724 16 22 1.6 8.0 0.00 0.15 0.15 66 1013.6
20260507160217 15 32 0.0 8.0 0.00 0.15 0.15 67 1013.6
20260507155712 15 22 0.0 3.2 0.00 0.15 0.15 67 1013.6
20260507155205 15 22 0.0 3.2 0.00 0.15 0.15 67 1013.6
20260507154702 15 22 0.0 3.2 0.00 0.15 0.15 67 1013.6
20260507154202 15 279 1.6 14.5 0.00 0.15 0.15 63 1013.6
20260507153701 15 279 1.6 14.5 0.00 0.15 0.15 60 1013.5
20260507152657 15 254 1.6 12.9 0.00 0.15 0.15 62 1013.5
20260507152200 16 271 1.6 8.0 0.00 0.15 0.15 60 1013.5
20260507151905 16 279 0.0 9.7 0.00 0.15 0.15 60 1013.5
20260507151754 16 273 1.6 9.7 0.00 0.15 0.15 60 1013.5
20260507150657 16 272 1.6 8.0 0.00 0.15 0.15 60 1013.5
20260507150155 16 271 1.6 8.0 0.00 0.15 0.15 61 1013.5
20260507145653 16 271 1.6 9.7 0.00 0.15 0.15 60 1013.5
20260507145153 16 281 1.6 9.7 0.00 0.15 0.15 60 1013.5
20260507144655 16 275 1.6 8.0 0.00 0.15 0.15 60 1013.6
20260507144154 15 275 1.6 12.9 0.00 0.15 0.15 63 1013.6
20260507143653 15 273 1.6 12.9 0.00 0.15 0.15 61 1013.7
20260507143155 15 273 0.0 1.6 0.00 0.15 0.15 64 1013.6
20260507142651 15 273 0.0 1.6 0.00 0.15 0.15 63 1013.6
20260507142151 15 273 0.0 0.0 0.00 0.15 0.15 62 1013.6
20260507141651 16 273 1.6 9.7 0.00 0.15 0.15 60 1013.6
20260507141145 16 273 1.6 9.7 0.00 0.15 0.15 60 1013.6
20260507141125 16 234 1.6 8.0 0.00 0.15 0.15 59 1013.6
20260507140133 16 238 3.2 8.0 0.00 0.15 0.15 59 1013.6
20260507140119 16 104 1.6 8.0 0.00 0.15 0.15 58 1013.7
20260507135127 16 279 1.6 6.4 0.00 0.15 0.15 62 1013.7
20260507134625 16 284 0.0 6.4 0.00 0.15 0.15 62 1013.8
20260507134125 15 310 0.0 6.4 0.00 0.15 0.15 63 1013.8
20260507133625 15 43 0.0 8.0 0.00 0.15 0.15 63 1013.8
20260507133124 16 42 0.0 8.0 0.00 0.15 0.15 63 1013.7
20260507132624 16 196 1.6 9.7 0.00 0.15 0.15 59 1013.8
20260507132125 16 275 3.2 9.7 0.00 0.15 0.15 63 1013.8
20260507131625 16 281 3.2 9.7 0.00 0.15 0.15 61 1013.8
20260507131125 15 286 0.0 8.0 0.00 0.15 0.15 65 1013.9
20260507130621 15 293 0.0 8.0 0.00 0.15 0.15 66 1013.9
20260507130121 15 276 1.6 11.3 0.00 0.15 0.15 65 1014.0
20260507125619 15 276 1.6 11.3 0.00 0.15 0.15 64 1013.9
20260507125607 15 313 0.0 1.6 0.00 0.15 0.15 64 1013.9
20260507124620 16 315 0.0 1.6 0.00 0.15 0.15 63 1014.0
20260507124120 16 32 0.0 8.0 0.00 0.15 0.15 64 1013.9
20260507123619 16 34 3.2 11.3 0.00 0.15 0.15 66 1014.0
20260507123120 15 45 1.6 11.3 0.00 0.15 0.15 68 1014.0
20260507122622 15 57 0.0 0.0 0.00 0.18 0.15 69 1014.0
20260507122119 15 45 0.0 0.0 0.00 0.18 0.15 70 1014.0
20260507121621 14 44 1.6 9.7 0.00 0.20 0.15 71 1014.0
20260507121121 14 44 1.6 9.7 0.00 0.23 0.15 69 1014.1
20260507120621 14 34 1.6 9.7 0.00 0.25 0.15 72 1014.1
20260507120120 14 49 1.6 6.4 0.00 0.28 0.15 70 1014.1
20260507115620 14 69 0.0 6.4 0.00 0.33 0.15 72 1014.2
20260507115121 14 32 0.0 0.0 0.00 0.33 0.15 73 1014.1
20260507114621 13 35 0.0 0.0 0.00 0.33 0.15 75 1014.1
20260507114120 14 36 1.6 9.7 0.00 0.36 0.15 73 1014.1
20260507113621 14 36 3.2 16.1 0.00 0.38 0.15 71 1014.1
20260507113119 15 40 3.2 16.1 0.00 0.41 0.15 71 1014.1
20260507112619 15 9 0.0 8.0 0.00 0.43 0.15 72 1014.1
20260507112121 15 18 0.0 8.0 0.00 0.43 0.15 71 1014.1
20260507111619 13 263 1.6 9.7 0.00 0.48 0.15 71 1014.1
20260507111121 13 263 1.6 9.7 0.00 0.51 0.15 70 1014.1
20260507110926 13 227 0.0 4.8 0.00 0.56 0.15 72 1014.1
20260507110845 13 221 0.0 6.4 0.00 0.58 0.15 72 1014.1
20260507105620 13 216 0.0 6.4 0.00 0.64 0.15 72 1014.1
20260507105119 14 320 1.6 8.0 0.00 0.69 0.15 71 1014.1
20260507104618 14 45 4.8 12.9 0.00 0.71 0.15 71 1014.1
20260507104119 14 52 6.4 14.5 0.00 0.71 0.15 78 1014.1
20260507103616 13 50 3.2 14.5 0.00 0.76 0.15 76 1014.2
20260507103115 13 40 1.6 11.3 0.00 0.76 0.15 76 1014.2
20260507102614 13 40 0.0 8.0 0.00 0.79 0.15 78 1014.2
20260507102111 13 40 1.6 8.0 0.00 0.79 0.15 78 1014.2
20260507101612 13 286 1.6 14.5 0.00 0.79 0.15 77 1014.2
20260507101547 13 286 0.0 14.5 0.00 0.81 0.15 73 1014.2
20260507100611 13 277 0.0 3.2 0.00 0.84 0.15 70 1014.2
20260507100552 13 273 0.0 6.4 0.00 0.86 0.15 72 1014.2
20260507095615 13 273 0.0 6.4 0.00 0.89 0.15 74 1014.2
20260507095607 13 271 0.0 6.4 0.00 0.89 0.15 74 1014.2
20260507094607 13 273 0.0 6.4 0.00 0.89 0.15 77 1014.2
20260507094106 13 273 0.0 6.4 0.00 0.89 0.15 77 1014.2
20260507093604 13 271 0.0 0.0 0.00 0.89 0.15 78 1014.3
20260507093103 13 269 0.0 0.0 0.00 0.89 0.15 76 1014.2
20260507092823 12 268 0.0 1.6 0.00 0.89 0.15 75 1014.2
20260507092721 12 268 0.0 8.0 0.00 0.89 0.15 77 1014.2
20260507091557 12 268 1.6 8.0 0.00 0.89 0.15 79 1014.2
20260507091055 13 268 1.6 8.0 0.00 0.89 0.15 78 1014.2
20260507090556 13 268 0.0 8.0 0.00 0.89 0.15 78 1014.1
20260507090049 13 266 0.0 0.0 0.00 0.89 0.15 78 1014.1
20260507085544 13 266 0.0 1.6 0.00 0.89 0.15 77 1014.1
20260507085357 12 266 0.0 6.4 0.00 0.89 0.15 80 1014.1
20260507085307 12 266 0.0 6.4 0.00 0.89 0.15 80 1014.1
20260507084026 12 215 0.0 0.0 0.00 0.89 0.15 82 1014.1
20260507083520 12 215 0.0 0.0 0.00 0.89 0.15 80 1014.1
20260507083014 12 213 0.0 0.0 0.00 0.89 0.15 82 1014.0
20260507082950 12 212 0.0 0.0 0.00 0.89 0.15 83 1014.0
20260507082003 11 210 0.0 0.0 0.00 0.89 0.15 85 1014.0
20260507081456 11 207 0.0 0.0 0.00 0.89 0.15 85 1014.1
20260507080951 11 207 0.0 0.0 0.00 0.89 0.15 86 1014.1
20260507080700 11 207 0.0 0.0 0.00 0.89 0.15 88 1014.0
20260507080158 10 207 0.0 0.0 0.00 0.89 0.15 87 1014.0
20260507075432 10 207 0.0 0.0 0.00 0.89 0.15 90 1014.0
20260507074926 10 207 0.0 0.0 0.00 0.89 0.15 89 1014.0
20260507074420 10 207 0.0 0.0 0.00 0.89 0.15 90 1014.0
20260507073913 10 207 0.0 0.0 0.00 0.89 0.15 89 1014.0
20260507073408 10 207 0.0 0.0 0.00 0.89 0.15 90 1014.0
20260507072902 10 207 0.0 0.0 0.00 0.89 0.15 91 1013.9
20260507072356 10 206 0.0 0.0 0.00 0.89 0.15 91 1014.0
20260507072013 10 211 0.0 0.0 0.00 0.89 0.15 93 1013.8
20260507071917 10 207 0.0 3.2 0.00 0.89 0.15 92 1013.8
20260507071906 10 206 0.0 3.2 0.00 0.89 0.15 92 1013.9
20260507071100 9 212 0.0 0.0 0.00 0.89 0.15 92 1013.8
20260507065826 9 212 0.0 0.0 0.00 0.89 0.15 93 1013.8
20260507065811 9 212 0.0 0.0 0.00 0.89 0.15 93 1013.8
20260507064814 9 212 0.0 0.0 0.00 0.89 0.15 93 1013.8
20260507064308 9 212 0.0 0.0 0.00 0.89 0.15 93 1013.8
20260507064026 9 212 0.0 0.0 0.00 0.89 0.15 93 1013.7
20260507063256 9 212 0.0 0.0 0.00 0.89 0.15 93 1013.7
20260507062750 9 202 0.0 0.0 0.00 0.89 0.15 93 1013.7
20260507062244 9 202 0.0 0.0 0.00 0.89 0.15 93 1013.7
20260507061738 9 202 0.0 0.0 0.00 0.89 0.15 94 1013.7
20260507061231 9 202 0.0 0.0 0.00 0.89 0.15 94 1013.6
20260507060726 9 202 0.0 0.0 0.00 0.89 0.15 94 1013.6
20260507060709 9 202 0.0 0.0 0.00 0.89 0.15 94 1013.5
20260507055714 9 202 0.0 0.0 0.00 0.89 0.15 94 1013.5
20260507055208 9 202 0.0 0.0 0.00 0.89 0.15 94 1013.5
20260507054702 9 202 0.0 0.0 0.00 0.89 0.15 95 1013.4
20260507054156 8 202 0.0 0.0 0.00 0.89 0.15 95 1013.4
20260507053650 8 202 0.0 0.0 0.00 0.89 0.15 95 1013.4
20260507053144 8 202 0.0 0.0 0.03 0.89 0.15 95 1013.3
20260507052639 8 202 0.0 0.0 0.03 0.89 0.15 95 1013.2
20260507052132 8 202 0.0 0.0 0.03 0.89 0.15 95 1013.1
20260507051626 8 202 0.0 0.0 0.03 0.89 0.15 94 1013.0
20260507051120 8 202 0.0 0.0 0.03 0.89 0.15 94 1013.0
20260507050835 8 202 0.0 0.0 0.03 0.89 0.15 94 1013.0
20260507050108 8 202 0.0 0.0 0.03 0.89 0.15 94 1012.9
20260507045602 8 202 0.0 0.0 0.03 0.89 0.15 94 1012.9
20260507045056 8 202 0.0 0.0 0.03 0.89 0.15 94 1012.8
20260507044550 8 202 0.0 0.0 0.03 0.89 0.15 94 1012.8
20260507044538 8 202 0.0 0.0 0.03 0.89 0.15 94 1012.7
20260507043548 8 202 0.0 0.0 0.03 0.89 0.15 94 1012.6
20260507043047 8 202 0.0 0.0 0.00 0.89 0.13 94 1012.6
20260507042545 8 202 0.0 0.0 0.00 0.89 0.13 94 1012.5
20260507042041 8 202 0.0 0.0 0.00 0.89 0.13 94 1012.5
20260507041539 8 202 0.0 0.0 0.00 0.89 0.13 94 1012.4
20260507041037 8 202 0.0 0.0 0.00 0.89 0.13 94 1012.4
20260507040536 8 202 0.0 0.0 0.00 0.89 0.13 94 1012.3
20260507040033 8 202 0.0 0.0 0.00 0.89 0.13 94 1012.3
20260507035531 8 202 0.0 0.0 0.00 0.89 0.13 94 1012.4
20260507035032 8 202 0.0 0.0 0.00 0.89 0.13 94 1012.4
20260507034532 8 202 0.0 0.0 0.00 0.89 0.13 94 1012.4
20260507034029 8 202 0.0 0.0 0.00 0.89 0.13 94 1012.4
20260507033527 8 202 0.0 0.0 0.00 0.89 0.13 94 1012.3
20260507033025 8 202 0.0 0.0 0.00 0.89 0.13 94 1012.3
20260507032522 8 202 0.0 0.0 0.00 0.89 0.13 94 1012.3
20260507032021 8 202 0.0 0.0 0.00 0.89 0.13 94 1012.2
20260507031520 8 202 0.0 0.0 0.00 0.89 0.13 94 1012.2
20260507031508 8 202 0.0 0.0 0.00 0.89 0.13 93 1012.2
20260507030514 8 202 0.0 0.0 0.00 0.89 0.13 93 1012.1
20260507030015 8 202 0.0 0.0 0.00 0.89 0.13 94 1012.1
20260507025515 8 202 0.0 0.0 0.03 0.89 0.13 94 1012.2
20260507025017 8 202 0.0 0.0 0.03 0.89 0.13 94 1012.2
20260507024514 8 202 0.0 0.0 0.03 0.89 0.13 94 1012.1
20260507024503 8 202 0.0 0.0 0.03 0.89 0.13 94 1012.1
20260507023521 8 202 0.0 0.0 0.03 0.89 0.13 94 1012.2
20260507023515 8 202 0.0 0.0 0.03 0.89 0.13 94 1012.2
20260507022516 8 202 0.0 0.0 0.03 0.89 0.13 93 1012.0
20260507022015 8 202 0.0 0.0 0.03 0.89 0.13 93 1012.1
20260507021839 8 202 0.0 0.0 0.05 0.89 0.13 93 1012.1
20260507021804 8 202 0.0 0.0 0.05 0.89 0.13 93 1012.0
20260507020514 8 202 0.0 0.0 0.05 0.89 0.13 93 1012.0
20260507020508 8 202 0.0 0.0 0.05 0.89 0.13 93 1012.0
20260507015516 8 202 0.0 0.0 0.05 0.86 0.10 93 1012.0
20260507015015 8 202 0.0 0.0 0.05 0.86 0.10 93 1011.8
20260507014515 8 202 0.0 0.0 0.05 0.86 0.10 93 1011.8
20260507014014 8 202 0.0 0.0 0.05 0.86 0.10 93 1011.7
20260507014001 8 202 0.0 0.0 0.05 0.86 0.10 93 1011.7
20260507013015 8 202 0.0 0.0 0.05 0.86 0.10 93 1011.8
20260507012515 8 202 0.0 0.0 0.08 0.86 0.10 93 1011.6
20260507012504 8 202 0.0 0.0 0.08 0.86 0.10 93 1011.6
20260507011516 8 202 0.0 0.0 0.05 0.84 0.08 93 1011.6
20260507011240 8 202 0.0 0.0 0.05 0.84 0.08 93 1011.6
20260507010519 8 202 0.0 0.0 0.05 0.81 0.05 92 1011.6
20260507010512 8 202 0.0 0.0 0.05 0.84 0.08 93 1011.6
20260507010405 8 202 0.0 0.0 0.05 0.81 0.05 93 1011.6
20260507005008 8 202 0.0 0.0 0.05 0.81 0.05 93 1011.5
20260507004501 8 202 0.0 0.0 0.03 0.79 0.05 93 1011.5
20260507003956 8 202 0.0 0.0 0.03 0.79 0.05 93 1011.5
20260507003449 8 202 0.0 0.0 0.03 0.79 0.05 93 1011.5
20260507002943 8 202 0.0 0.0 0.00 0.79 0.03 93 1011.5
20260507002437 8 202 0.0 0.0 0.00 0.79 0.03 93 1011.5
20260507002413 8 202 0.0 0.0 0.00 0.79 0.03 93 1011.4
20260507001425 8 202 0.0 0.0 0.00 0.79 0.03 93 1011.4
20260507000919 8 202 0.0 0.0 0.00 0.79 0.03 93 1011.3
20260507000858 8 202 0.0 0.0 0.00 0.79 0.03 93 1011.3
20260506235908 8 202 0.0 0.0 0.00 0.79 0.03 93 1011.3
20260506235408 8 202 0.0 0.0 0.03 0.79 0.03 93 1011.3
20260506235247 8 202 0.0 0.0 0.03 0.79 0.03 92 1011.3
20260506235152 8 202 0.0 0.0 0.03 0.79 0.03 93 1011.3
20260506234830 8 202 0.0 0.0 0.03 0.79 0.03 92 1011.3
20260506234137 8 202 0.0 0.0 0.03 0.79 0.03 92 1011.2
20260506232907 8 202 0.0 0.0 0.03 0.79 0.03 92 1011.3
20260506232407 8 202 0.0 0.0 0.03 0.79 0.03 92 1011.3
20260506231907 8 202 0.0 0.0 0.03 0.79 0.03 91 1011.3
20260506231406 8 202 0.0 0.0 0.03 0.79 0.03 91 1011.3
20260506230905 8 202 0.0 0.0 0.03 0.79 0.03 91 1011.3
20260506230405 8 202 0.0 0.0 0.03 0.79 0.03 91 1011.2
20260506225905 8 202 0.0 0.0 0.03 0.79 0.03 91 1011.3
20260506225402 8 202 0.0 0.0 0.00 0.76 0.00 91 1011.3
20260506224902 8 202 0.0 3.2 0.00 0.76 0.00 91 1011.2
20260506224404 8 202 0.0 3.2 0.00 0.76 0.00 90 1011.3
20260506223903 8 202 0.0 0.0 0.00 0.76 0.00 91 1011.3
20260506223402 9 202 0.0 0.0 0.00 0.76 0.00 90 1011.3
20260506222856 9 202 0.0 0.0 0.00 0.76 0.00 90 1011.1
20260506222348 9 202 0.0 0.0 0.00 0.76 0.00 90 1011.1
20260506221843 9 202 0.0 0.0 0.00 0.76 0.00 90 1011.1
20260506221337 9 202 0.0 0.0 0.00 0.76 0.00 90 1011.2
20260506220831 9 202 0.0 0.0 0.00 0.76 0.00 90 1011.1
20260506220325 9 202 0.0 3.2 0.00 0.76 0.00 89 1011.1
20260506215819 9 202 0.0 3.2 0.00 0.76 0.76 90 1011.0
20260506215313 9 202 0.0 0.0 0.00 0.76 0.76 90 1011.0
20260506214807 9 202 0.0 0.0 0.00 0.76 0.76 89 1011.0
20260506214301 9 202 0.0 0.0 0.00 0.76 0.76 89 1011.1
20260506213755 9 202 0.0 1.6 0.00 0.76 0.76 90 1011.0
20260506213248 9 202 0.0 3.2 0.00 0.76 0.76 90 1011.1
20260506212743 9 202 0.0 3.2 0.00 0.76 0.76 90 1011.1
20260506212244 9 202 0.0 0.0 0.00 0.76 0.76 90 1011.1
20260506212005 9 202 0.0 6.4 0.00 0.76 0.76 89 1011.0
20260506211240 9 202 0.0 6.4 0.00 0.76 0.76 89 1011.0
20260506211011 9 202 0.0 1.6 0.00 0.76 0.76 89 1010.8
20260506210238 9 202 0.0 0.0 0.00 0.76 0.76 89 1010.9
20260506205738 9 202 0.0 8.0 0.00 0.76 0.76 89 1010.8
20260506205238 9 202 0.0 8.0 0.00 0.76 0.76 89 1010.7
20260506204736 9 153 0.0 6.4 0.00 0.76 0.76 90 1010.7
20260506204236 9 153 0.0 6.4 0.00 0.76 0.76 91 1010.7
20260506204003 9 153 1.6 9.7 0.00 0.76 0.76 91 1010.6
20260506203238 9 153 1.6 9.7 0.00 0.76 0.76 91 1010.6
20260506202737 9 246 0.0 1.6 0.00 0.76 0.76 91 1010.7
20260506202234 9 246 0.0 0.0 0.00 0.76 0.76 91 1010.6
20260506202226 9 246 0.0 0.0 0.00 0.76 0.76 91 1010.6
20260506201231 9 246 0.0 0.0 0.00 0.76 0.76 91 1010.6
20260506200730 10 246 0.0 6.4 0.00 0.76 0.76 91 1010.6
20260506200231 10 246 0.0 6.4 0.00 0.76 0.76 92 1010.6
20260506195729 10 246 0.0 0.0 0.00 0.76 0.76 92 1010.4
20260506195230 10 246 0.0 0.0 0.00 0.76 0.76 92 1010.2
20260506194725 9 246 0.0 0.0 0.00 0.76 0.76 91 1010.3
20260506194218 9 246 0.0 0.0 0.00 0.76 0.76 91 1010.2
20260506193712 10 246 0.0 0.0 0.00 0.76 0.76 90 1010.1
20260506193647 10 246 0.0 0.0 0.00 0.76 0.76 90 1010.0
20260506192700 10 246 0.0 0.0 0.00 0.76 0.76 90 1010.0
20260506192154 10 246 0.0 0.0 0.00 0.76 0.76 90 1010.0
20260506191648 10 246 0.0 0.0 0.00 0.76 0.76 90 1009.9
20260506191143 10 246 0.0 0.0 0.00 0.76 0.76 90 1009.9
20260506191123 10 246 0.0 0.0 0.00 0.76 0.76 89 1009.9
20260506190443 10 250 0.0 0.0 0.00 0.76 0.76 89 1009.8
20260506190354 10 250 0.0 0.0 0.00 0.76 0.76 88 1009.7
20260506185119 10 250 0.0 0.0 0.00 0.76 0.76 88 1009.7
20260506185101 10 250 0.0 0.0 0.00 0.76 0.76 87 1009.7
20260506184106 10 250 0.0 0.0 0.00 0.76 0.76 87 1009.7
20260506183604 11 250 0.0 0.0 0.00 0.76 0.76 86 1009.6
20260506183557 11 250 0.0 0.0 0.00 0.76 0.76 86 1009.5
20260506183457 11 250 0.0 0.0 0.00 0.76 0.76 85 1009.5
20260506182808 11 250 0.0 0.0 0.00 0.76 0.76 85 1009.4
20260506181536 11 250 0.0 0.0 0.00 0.76 0.76 86 1009.4
20260506181030 11 250 0.0 0.0 0.00 0.76 0.76 85 1009.4
20260506180524 11 250 0.0 0.0 0.00 0.76 0.76 84 1009.4
20260506180018 11 250 0.0 0.0 0.00 0.76 0.76 83 1009.4
20260506175512 11 250 0.0 0.0 0.00 0.76 0.76 83 1009.3
20260506175006 11 250 0.0 0.0 0.00 0.76 0.76 83 1009.3
20260506174804 11 250 0.0 0.0 0.00 0.76 0.76 83 1009.3
20260506174717 11 250 0.0 0.0 0.00 0.76 0.76 82 1009.3
20260506173448 11 250 0.0 0.0 0.00 0.76 0.76 83 1009.1
20260506172942 11 250 0.0 6.4 0.00 0.76 0.76 82 1009.1
20260506172934 11 250 0.0 6.4 0.00 0.76 0.76 82 1009.0
20260506171930 11 229 0.0 0.0 0.00 0.76 0.76 81 1008.9
20260506171424 11 229 0.0 0.0 0.00 0.76 0.76 81 1009.0
20260506170918 11 229 0.0 0.0 0.00 0.76 0.76 82 1008.9
20260506170412 11 229 0.0 0.0 0.00 0.76 0.76 83 1008.9
20260506165906 11 229 0.0 0.0 0.00 0.76 0.76 83 1008.8
20260506165400 11 229 0.0 0.0 0.00 0.76 0.76 82 1008.8
20260506164854 11 229 0.0 0.0 0.00 0.76 0.76 81 1008.8
20260506164826 11 229 0.0 0.0 0.00 0.76 0.76 82 1008.7